Regional Weather Roundup
Issued by NWS Sterling, VA

Home | Current Version | Previous Version | Graphics & Text | Print | Product List | Glossary On
Versions: 1 2 3 4 5 6 7 8 9 10 11 12 13 14 15 16 17 18 19 20 21 22 23 24 25 26 27
000
ASUS41 KLWX 301410
RWRLWX

REGIONAL WEATHER ROUNDUP
NATIONAL WEATHER SERVICE BALTIMORE MD/WASHINGTON DC
1000 AM EDT SAT JUL 30 2016

Note: "FAIR" indicates few or no clouds below 12,000 feet
with no significant weather and/or obstructions to visibility.
 TC=TEMPERATURE CELSIUS

 * =Non NWS site. Station does not report precipitation (e.g. rain,
    snow, etc.), thunder, or fog.

DCZ001-MDZ009-015-VAZ040>042-051-053>054-301500-
WASHINGTON METRO

CITY           SKY/WX    TMP DP  RH WIND       PRES   REMARKS
WASHINGTON NAT PTSUNNY   82  73  74 S8        29.98S
DULLES         FAIR      82  71  69 S9        29.98S
ANDREWS AFB    CLOUDY    81  73  77 S7        29.98S
FT BELVOIR     FAIR      81  73  76 S5        29.98S
QUANTICO       FAIR      83  74  74 SW7       29.99
LEESBURG*      CLOUDY    82  75  78 S10       29.99F
MANASSAS*      PTSUNNY   81  75  83 S6        29.98S
GAITHERSBURG*  MOSUNNY   82  73  74 S7        30.03S

$$

MDZ006>007-011-014-301500-
BALTIMORE METRO

CITY           SKY/WX    TMP DP  RH WIND       PRES   REMARKS
BWI AIRPORT    CLOUDY    82  72  71 S8        29.98S
MD SCIENCE CTR   N/A     83  71  67 MISG      30.00R
MARTIN STATE   PTSUNNY   82  77  83 CALM      29.99S HX  91
ANNAPOLIS      MOSUNNY    0   0 100 CALM      29.98S
FORT MEADE*    CLOUDY    79  73  83 CALM      30.01S

$$

MDZ012-015-019>023-301500-
MARYLAND EASTERN SHORE

CITY           SKY/WX    TMP DP  RH WIND       PRES   REMARKS
OCEAN CITY     SUNNY     82  74  76 S5        30.01S
SALISBURY      MOSUNNY   82  73  74 MISG      30.00
BAY BRIDGE AP* PTSUNNY   84  75  74 S9        29.98S HX  92
CAMBRIDGE*     CLOUDY    81  73  78 SE8       29.98F
EASTON*        SUNNY     86  79  79 S9        30.02F HX  99

$$

MDZ017>025-301500-
SOUTHERN MARYLAND

CITY           SKY/WX    TMP DP  RH WIND       PRES   REMARKS
PATUXENT RIVER PTSUNNY   85  73  67 SE9       29.98F HX  91
ST INIGOES     MOSUNNY   84  76  76 S8        29.98F HX  93
LEONARDTOWN*   SUNNY     82  72  69 SE6       30.00F

$$

MDZ003>005-301500-
NORTH CENTRAL MARYLAND

CITY           SKY/WX    TMP DP  RH WIND       PRES   REMARKS
FREDERICK*     MOSUNNY   81  75  83 CALM      30.01S
HAGERSTOWN APT CLOUDY    77  70  79 W6        29.99R

$$

MDZ501>502-301500-
WESTERN MARYLAND

CITY           SKY/WX    TMP DP  RH WIND       PRES   REMARKS
OAKLAND*       PTSUNNY   70  64  83 S7        30.07S
CUMBERLAND*    PTSUNNY   73  70  88 CALM      30.02F

$$

VAZ025>031-301500-
SHENANDOAH VALLEY

CITY           SKY/WX    TMP DP  RH WIND       PRES   REMARKS
WINCHESTER*    PTSUNNY   79  70  73 E3        29.98F
FRONT ROYAL*   PTSUNNY   81  72  74 CALM      29.97S
LURAY*         NOT AVBL
NEW MARKET*    PTSUNNY   80  71  74 SW5       29.98S
STAUNTON*      CLOUDY    79  71  77 SW5       30.03S
WAYNESBORO*    FAIR      80  70  71 S5        30.03S

$$

WVZ021-048>050-054>055-301500-
EASTERN WEST VIRGINIA PANHANDLE

CITY           SKY/WX    TMP DP  RH WIND       PRES   REMARKS
MARTINSBURG    PTSUNNY   73  71  93 NE3       29.97S FOG
PETERSBURG*    FAIR      80  71  75 CALM      29.98F

$$

VAZ036>039-050-301500-
CENTRAL FOOTHILLS

CITY           SKY/WX    TMP DP  RH WIND       PRES   REMARKS
CHARLOTTESVILL FAIR      80  73  79 S9        30.00R
CULPEPER*      CLOUDY    80  75  84 S3        29.99S
ORANGE*          N/A     79  75  89 SE7       30.01S
GORDONSVILLE*  FAIR      77  74  89 S5        30.00R
WARRENTON*     PTSUNNY   82  69  63 S6        29.98S

$$

VAZ055>057-301500-
NORTH AND CENTRAL PIEDMONT

CITY           SKY/WX    TMP DP  RH WIND       PRES   REMARKS
FREDERICKSBRG* FAIR      83  76  80 S9        29.98S HX  91
STAFFORD*      PTSUNNY   81  73  76 S5        30.02S

$$

NCZ024-NYZ072-PAZ021-071-VAZ022-071-301500-
OTHER REGIONAL OBSERVATIONS

CITY           SKY/WX    TMP DP  RH WIND       PRES   REMARKS
NEW YORK CITY  MOSUNNY   79  69  71 NE7       30.03F
PHILADELPHIA   CLOUDY    83  73  72 VRB3      29.99S
PITTSBURGH     LGT RAIN  70  68  93 SE7       29.96F FOG
ROANOKE        FAIR      76  72  87 W3        30.05S
RICHMOND       PTSUNNY   81  74  79 S9        29.98F
RALEIGH        PTSUNNY   83  74  74 SW6       29.99S

$$

ANZ530>537-301500-
MARINE OBSERVATIONS

STATION/POSITION TIME  TEMP    WIND        PRES
                       AIR SEA DIR/SP/G
                 (UTC) (F)     (DEG/KT/KT) (MB)
THOMAS PT LIGHT  1400   82 83  170/ 13/ 14 1016.5S
BALT KEY BRIDGE  1348   80     180/  5/  7 1015.0F
COVE POINT       1348   82     190/  9/ 11 1015.9F
LEWISETTA        1348   83 86  180/  7/  9 1015.1F
SOLOMONS ISLAND  1348          170/ 10/ 12   N/A
PINEY POINT      1348          170/  8/  8   N/A

$$





USA.gov is the U.S. government's official web portal to all federal, state and local government web resources and services.